[[{"header":{"parameterUnit":"m.s-1","parameterCategory":1,"la1":30.2991,"la2":30.254,"lo1":-89.0895,"lo2":-89.0444,"dy":0.0017,"dx":0.0017,"nx":28,"ny":28,"refTime":"2025-09-04T03:00:00:Z","depth":0,"parameterNumber":2,"parameterNumberName":"U-component_of_WINDS"},"data":[0,0,0,0,0,0,0,0,0,0,0,0,0,0,0,0,0,0,0,0,0,0,0,0,0,0,0,0,0,0,0,0,0,0,0,0,0,0,0,0,0,0,0,0,0,0,0,0,0,0,0,0,0,0,0,0,0,0,-1.2857,-1.2856,0,-1.2822,-1.2822,-1.2822,-1.2782,-1.2782,-1.2781,-1.2781,-1.2746,-1.2745,-1.2745,0,0,0,0,0,0,0,0,0,0,0,0,0,-1.2889,-1.2888,-1.2857,-1.2856,-1.2856,-1.2823,-1.2822,-1.2822,-1.2782,-1.2782,-1.2781,-1.278,-1.2746,-1.2745,-1.2745,0,0,0,0,0,0,0,0,0,0,0,0,0,-1.2867,-1.2888,-1.2857,-1.2832,-1.283,-1.2823,-1.2822,-1.2821,-1.2783,-1.2782,-1.2781,-1.278,-1.2746,-1.2745,-1.2745,-1.2759,0,0,-1.2743,-1.2743,0,0,0,0,0,0,0,0,-1.2868,-1.2866,-1.2836,-1.2834,-1.2831,-1.2806,-1.282,-1.28,-1.2783,-1.2801,-1.2781,-1.278,-1.2766,-1.2764,-1.276,-1.2757,-1.2756,-1.2743,-1.2743,-1.2742,-1.2742,0,0,0,0,0,0,0,-1.287,-1.2867,-1.2843,-1.2836,-1.2833,-1.2823,-1.2819,-1.2817,-1.2789,-1.2799,-1.2796,-1.2792,-1.2765,-1.276,-1.2758,-1.2755,-1.2743,-1.2742,-1.2742,-1.2742,-1.2764,-1.2765,0,0,0,0,0,0,-1.2875,-1.2868,-1.2844,-1.2842,-1.2848,-1.2823,-1.2819,-1.2815,-1.2789,-1.2784,-1.2793,-1.2791,-1.2762,-1.2759,-1.2757,-1.2772,-1.2742,-1.2742,-1.2741,-1.2763,-1.2764,-1.2765,0,0,0,0,0,0,-1.2876,-1.2873,-1.2846,-1.2854,-1.285,-1.2824,-1.282,-1.2815,-1.281,-1.2784,-1.2779,-1.2794,-1.2761,-1.2758,-1.2759,-1.2771,-1.2741,-1.2741,-1.2762,-1.2763,-1.2764,-1.2803,0,0,0,0,0,0,-1.2877,-1.2874,-1.2878,-1.2855,-1.285,-1.2848,-1.282,-1.2815,-1.2809,-1.2806,-1.2783,-1.2779,-1.276,-1.276,-1.2758,-1.2769,-1.2741,-1.2761,-1.2762,-1.2764,-1.2801,-1.2805,-1.281,0,0,0,0,0,-1.2878,-1.289,-1.2879,-1.2876,-1.2855,-1.2849,-1.2846,-1.2824,-1.281,-1.2815,-1.2799,-1.278,-1.277,-1.276,-1.2758,-1.2769,-1.276,-1.2762,-1.2764,-1.2798,-1.2805,-1.281,0,0,0,0,0,0,-1.2916,-1.2887,-1.2874,-1.2879,-1.2867,-1.2842,-1.2847,-1.2831,-1.2822,-1.2819,-1.2792,-1.2787,-1.2792,-1.278,-1.2771,-1.2782,-1.2762,-1.2764,-1.2789,-1.2795,-1.2799,-1.2802,-1.274,0,0,0,0,0,-1.2925,-1.2922,-1.2897,-1.2904,-1.2898,-1.2874,-1.287,-1.2854,-1.284,-1.2835,-1.2819,-1.2806,-1.28,-1.2797,-1.279,-1.2799,-1.2794,-1.2805,-1.281,-1.2814,-1.2816,-1.282,-1.2825,-1.2772,-1.2772,-1.2772,0,0,-1.2943,-1.2927,-1.2927,-1.2911,-1.2899,-1.2897,-1.287,-1.2868,-1.2866,-1.2835,-1.2835,-1.2823,-1.2807,-1.2812,-1.2814,-1.2803,-1.283,-1.2817,-1.282,-1.282,-1.2823,-1.2828,-1.2833,-1.2773,-1.2773,-1.2773,0,0,-1.2976,-1.2963,-1.2968,-1.2957,-1.294,-1.2924,-1.2926,-1.2904,-1.2894,-1.2894,-1.2871,-1.2868,-1.2858,-1.2848,-1.2842,-1.2872,-1.2854,-1.287,-1.2894,-1.2899,-1.2903,-1.2907,-1.2918,-1.2922,-1.2872,-1.2872,-1.2872,0,-1.3001,-1.2996,-1.2972,-1.2972,-1.2966,-1.2938,-1.2943,-1.2934,-1.2915,-1.2912,-1.29,-1.2888,-1.2875,-1.2878,-1.2886,-1.2882,-1.2882,-1.2872,-1.2905,-1.2908,-1.2911,-1.2921,-1.2925,-1.2874,-1.2874,-1.2874,-1.2874,0,-1.3028,-1.3025,-1.3031,-1.3014,-1.3009,-1.3011,-1.2988,-1.2986,-1.2971,-1.2956,-1.2957,-1.2941,-1.2931,-1.293,-1.2915,-1.2931,-1.2925,-1.291,-1.2889,-1.2919,-1.2928,-1.2932,-1.2877,-1.2877,-1.2876,-1.2876,0,0,-1.3082,-1.3053,-1.3056,-1.3048,-1.3028,-1.3026,-1.3027,-1.3017,-1.3016,-1.3005,-1.3005,-1.2998,-1.2984,-1.2977,-1.2961,-1.2965,-1.299,-1.2949,-1.2948,-1.2957,-1.3008,-1.302,-1.3025,-1.2979,-1.2979,-1.298,-1.3009,0,-1.3111,-1.3112,-1.3091,-1.3098,-1.3095,-1.3069,-1.307,-1.3058,-1.3045,-1.3041,-1.3026,-1.3022,-1.3003,-1.2999,-1.3002,-1.2987,-1.3,-1.2984,-1.2979,-1.298,-1.2984,-1.3029,-1.3042,-1.307,-1.3013,-1.3013,-1.3014,0,-1.3145,-1.3136,-1.3142,-1.3122,-1.312,-1.3122,-1.3112,-1.3108,-1.3095,-1.3085,-1.3077,-1.3059,-1.306,-1.3041,-1.3041,-1.3031,-1.3028,-1.302,-1.3021,-1.3019,-1.2998,-1.3029,-1.3079,-1.3083,-1.3019,-1.3018,-1.3018,0,-1.3184,-1.3174,-1.3176,-1.3171,-1.3148,-1.315,-1.314,-1.3125,-1.3121,-1.3112,-1.3109,-1.3101,-1.3096,-1.309,-1.307,-1.3058,-1.3073,-1.3052,-1.3065,-1.3066,-1.307,-1.307,-1.3119,-1.3068,-1.3068,-1.3068,-1.3068,0,-1.3219,-1.3224,-1.3194,-1.3196,-1.3201,-1.3177,-1.3183,-1.3171,-1.3158,-1.3158,-1.3134,-1.3134,-1.3108,-1.3105,-1.3089,-1.3093,-1.3091,-1.3083,-1.3079,-1.3085,-1.3086,-1.3083,-1.308,-1.3069,-1.3069,-1.3068,-1.3068,0,-1.3264,-1.3244,-1.3245,-1.3223,-1.3218,-1.3223,-1.3204,-1.3205,-1.3191,-1.319,-1.3189,-1.3166,-1.3162,-1.3142,-1.3132,-1.3122,-1.313,-1.3122,-1.3135,-1.3132,-1.3147,-1.3146,-1.3196,-1.3202,-1.3147,-1.3147,-1.3148,0,-1.3287,-1.3291,-1.3269,-1.3267,-1.3259,-1.3255,-1.3251,-1.3228,-1.3224,-1.321,-1.3212,-1.3206,-1.32,-1.3194,-1.3177,-1.317,-1.3161,-1.3179,-1.316,-1.3166,-1.3162,-1.3162,-1.3162,-1.3183,-1.3184,-1.3185,-1.3185,0,-1.3331,-1.3321,-1.3315,-1.3307,-1.3302,-1.3294,-1.3285,-1.3284,-1.3259,-1.3256,-1.3251,-1.3246,-1.3237,-1.3231,-1.3221,-1.3212,-1.3195,-1.3191,-1.3194,-1.32,-1.3208,-1.3205,-1.3147,-1.319,-1.319,-1.3189,-1.3189,-1.3189,-1.3366,-1.3368,-1.3353,-1.3348,-1.3339,-1.3331,-1.3331,-1.3317,-1.3312,-1.3302,-1.3289,-1.3286,-1.3273,-1.3258,-1.325,-1.3248,-1.3238,-1.3242,-1.3243,-1.3244,-1.3248,-1.3209,-1.3246,-1.3246,-1.3246,-1.3246,-1.3246,0,-1.3409,-1.3398,-1.3394,-1.3381,-1.3378,-1.3361,-1.335,-1.3348,-1.3346,-1.3335,-1.333,-1.3324,-1.3319,-1.3302,-1.3295,-1.3296,-1.3288,-1.3295,-1.3295,-1.3293,-1.3257,-1.3255,-1.3302,-1.3302,-1.3302,-1.3302,-1.3302,-1.3302,-1.3431,-1.3433,-1.3422,-1.342,-1.3409,-1.3406,-1.3401,-1.3394,-1.3385,-1.3381,-1.3376,-1.3365,-1.3352,-1.3344,-1.3338,-1.3333,-1.3332,-1.3341,-1.3334,-1.3301,-1.3295,-1.329,-1.3289,-1.3341,-1.3341,-1.337,-1.3371,-1.3371]},{"header":{"parameterUnit":"m.s-1","parameterCategory":1,"la1":30.2991,"la2":30.254,"lo1":-89.0895,"lo2":-89.0444,"dy":0.0017,"dx":0.0017,"nx":28,"ny":28,"refTime":"2025-09-04T03:00:00:Z","depth":0,"parameterNumber":3,"parameterNumberName":"V-component_of_WINDS"},"data":[0,0,0,0,0,0,0,0,0,0,0,0,0,0,0,0,0,0,0,0,0,0,0,0,0,0,0,0,0,0,0,0,0,0,0,0,0,0,0,0,0,0,0,0,0,0,0,0,0,0,0,0,0,0,0,0,0,0,3.6133,3.6133,0,3.6114,3.6114,3.6113,3.6077,3.6077,3.6076,3.6075,3.6056,3.6056,3.6056,0,0,0,0,0,0,0,0,0,0,0,0,0,3.614,3.6141,3.6133,3.6133,3.6133,3.6114,3.6114,3.6113,3.6078,3.6077,3.6076,3.6075,3.6056,3.6056,3.6056,0,0,0,0,0,0,0,0,0,0,0,0,0,3.6131,3.6141,3.6133,3.6113,3.6111,3.6114,3.6114,3.6113,3.6078,3.6077,3.6076,3.6075,3.6056,3.6056,3.6056,3.6078,0,0,3.6057,3.6057,0,0,0,0,0,0,0,0,3.6131,3.6131,3.6116,3.6114,3.6112,3.6097,3.6109,3.6102,3.6078,3.609,3.6075,3.6074,3.607,3.6069,3.6068,3.6077,3.6076,3.6057,3.6057,3.6057,3.6057,0,0,0,0,0,0,0,3.6132,3.6131,3.6126,3.6116,3.6113,3.6105,3.6102,3.6107,3.6086,3.6089,3.6086,3.6085,3.6069,3.6068,3.6067,3.6076,3.6057,3.6057,3.6057,3.6057,3.6102,3.6103,0,0,0,0,0,0,3.6136,3.6132,3.6126,3.6125,3.6119,3.6105,3.6103,3.6103,3.6086,3.6083,3.6086,3.6083,3.6068,3.6067,3.6066,3.609,3.6057,3.6057,3.6057,3.6101,3.6102,3.6103,0,0,0,0,0,0,3.6136,3.6136,3.6127,3.6128,3.6126,3.6106,3.6107,3.6103,3.6102,3.6084,3.608,3.6088,3.6067,3.6066,3.6075,3.6089,3.6057,3.6057,3.61,3.6101,3.6103,3.6139,0,0,0,0,0,0,3.6136,3.6136,3.6144,3.6128,3.6126,3.6136,3.6108,3.6103,3.6102,3.6099,3.6085,3.6082,3.6066,3.6075,3.6076,3.6089,3.6058,3.6098,3.61,3.6102,3.6136,3.6141,3.6146,0,0,0,0,0,3.6137,3.6155,3.6144,3.6144,3.6136,3.6137,3.6136,3.6118,3.6103,3.6111,3.61,3.6082,3.6088,3.6077,3.6077,3.609,3.6097,3.61,3.6102,3.6134,3.614,3.6146,0,0,0,0,0,0,3.6173,3.6153,3.6141,3.6154,3.6148,3.6131,3.614,3.6125,3.6122,3.6119,3.6097,3.6094,3.6106,3.6099,3.6087,3.611,3.609,3.6092,3.6114,3.612,3.6125,3.6125,3.6058,0,0,0,0,0,3.6182,3.6185,3.6167,3.6181,3.6178,3.616,3.616,3.6147,3.6139,3.6136,3.6125,3.6118,3.6118,3.6119,3.6118,3.6135,3.6132,3.6145,3.615,3.6154,3.6156,3.6163,3.6169,3.6111,3.6111,3.6111,0,0,3.6202,3.6191,3.6194,3.6188,3.6181,3.6184,3.6158,3.6162,3.6165,3.6137,3.6144,3.6136,3.6127,3.614,3.6146,3.6135,3.6171,3.6157,3.616,3.616,3.6166,3.6172,3.6177,3.6113,3.6113,3.6112,0,0,3.6239,3.6232,3.6242,3.6236,3.6226,3.6214,3.6216,3.6202,3.6195,3.6203,3.6182,3.6184,3.6185,3.6179,3.6177,3.6212,3.6196,3.6213,3.6237,3.6245,3.625,3.6254,3.6265,3.627,3.6215,3.6215,3.6216,0,3.6265,3.6268,3.6249,3.6255,3.6253,3.6228,3.6238,3.6233,3.6224,3.6223,3.6211,3.6211,3.6204,3.6215,3.6223,3.6222,3.6224,3.6214,3.6251,3.6254,3.6258,3.6269,3.6273,3.6217,3.6217,3.6217,3.6217,0,3.63,3.6303,3.6312,3.6303,3.6303,3.6311,3.6293,3.6294,3.6281,3.627,3.6278,3.6268,3.6265,3.6267,3.6254,3.6276,3.6269,3.6255,3.6233,3.6266,3.6275,3.6279,3.622,3.622,3.6219,3.6219,0,0,3.6358,3.6338,3.6342,3.6338,3.6325,3.6327,3.6335,3.6331,3.6332,3.6327,3.6332,3.6334,3.632,3.6317,3.6304,3.6311,3.6338,3.6295,3.6294,3.6302,3.6361,3.6371,3.6376,3.6328,3.6329,3.6329,3.6361,0,3.6391,3.6401,3.6385,3.6399,3.6401,3.6378,3.6384,3.6377,3.6368,3.6368,3.6358,3.6359,3.6341,3.6339,3.6345,3.6334,3.635,3.6331,3.6332,3.6332,3.6333,3.6381,3.6392,3.6422,3.6365,3.6365,3.6366,0,3.6431,3.6427,3.6442,3.6428,3.6428,3.6434,3.6429,3.6431,3.6423,3.6415,3.6412,3.6396,3.6402,3.6383,3.6391,3.6379,3.6378,3.6373,3.6373,3.6371,3.635,3.6379,3.6431,3.6435,3.6372,3.6371,3.6371,0,3.647,3.6469,3.6477,3.6474,3.6459,3.6464,3.6458,3.6449,3.6447,3.6444,3.6443,3.644,3.6438,3.6436,3.642,3.6408,3.643,3.6409,3.6423,3.6423,3.6427,3.6427,3.6478,3.6429,3.6429,3.6429,3.6429,0,3.6508,3.6518,3.6495,3.65,3.651,3.6491,3.6501,3.6493,3.6485,3.6488,3.6468,3.6472,3.6451,3.6452,3.644,3.6447,3.6447,3.6441,3.6437,3.6442,3.6442,3.644,3.6437,3.643,3.643,3.643,3.643,0,3.6553,3.6538,3.6545,3.6531,3.6527,3.6535,3.6522,3.6526,3.6516,3.652,3.652,3.6503,3.6503,3.6487,3.6485,3.6476,3.6489,3.6482,3.6491,3.6489,3.6503,3.6501,3.6553,3.6559,3.6508,3.6508,3.6509,0,3.6578,3.6584,3.657,3.6571,3.6566,3.6567,3.6566,3.6548,3.6547,3.6539,3.6544,3.6542,3.654,3.6541,3.6529,3.6526,3.6519,3.6537,3.6518,3.6522,3.6517,3.6517,3.6517,3.6541,3.6541,3.6542,3.6542,0,3.6623,3.6615,3.6614,3.661,3.6609,3.6606,3.6601,3.6602,3.6583,3.6583,3.6583,3.6581,3.6578,3.6577,3.6572,3.6566,3.6551,3.6549,3.6551,3.6555,3.656,3.6556,3.6501,3.6547,3.6547,3.6546,3.6546,3.6546,3.6657,3.6662,3.6652,3.6652,3.6646,3.6642,3.6645,3.6635,3.6634,3.663,3.662,3.6622,3.6613,3.6605,3.6601,3.6601,3.6592,3.6596,3.6597,3.6598,3.66,3.6561,3.6601,3.66,3.66,3.66,3.66,0,3.67,3.6693,3.6693,3.6686,3.6686,3.6672,3.6666,3.6666,3.6668,3.6662,3.666,3.6659,3.6658,3.6646,3.6643,3.6646,3.6639,3.6646,3.6645,3.6643,3.661,3.6607,3.6651,3.6651,3.6651,3.6651,3.6651,3.6651,3.6722,3.6729,3.672,3.6724,3.6717,3.6718,3.6716,3.6712,3.6707,3.6707,3.6706,3.6698,3.6689,3.6686,3.6684,3.668,3.6679,3.6688,3.6682,3.6651,3.6646,3.6641,3.6638,3.6689,3.6689,3.6716,3.6716,3.6716]}]]